Location: Ferchesar
(52.6477°N, 12.4298°E)
Time: 05:36:22
(UTC+02:00)

Vanguard 3 - Pass Details

Date: 06 March 2021
Orbit: 508 x 3262 km, 33.3° (Epoch: 15 April)

Event Time Altitude Azimuth Distance (km) Brightness Sun altitude
Rises 14:23:09 0° 223° (SW) 7,126 13.2 26.5°
Reaches altitude 10° 14:28:42 10° 215° (SW) 6,190 13.5 26.0°
Maximum altitude 14:44:28 32° 163° (SSE) 4,312 11.5 24.5°
Drops below altitude 10° 14:57:14 10° 109° (ESE) 5,027 11.0 23.2°
Sets 15:01:07 0° 99° (E) 5,675 11.1 22.8°
